Probability
10 10 16 23 16 10 6 13 13 10 10 16 16 16 16 16 13 13 13 13 13 10 6 6 6 6 6 3 6 6 6 6 3 3 3 3 3 3 3 3 3 6 6
6 13 10 10 16 10 6 10 13 10 6 16 16 16 19 16 13 13 13 13 13 13 10 3 3 3 3 3 6 6 6 6 3 3 3 3 3 3 3 3 3 3 6
6 10 13 13 6 10 16 19 16 13 13 19 19 23 19 16 13 10 6 3 6 10 6 6 3 3 3 3 3 6 6 6 3 3 3 3 3 3 0 0 3 3 3
6 10 10 10 10 10 10 13 10 10 16 19 23 29 26 23 16 10 6 6 6 6 6 10 6 3 3 3 6 6 6 3 3 3 3 3 3 0 0 0 0 3 3
3 6 10 13 6 6 10 13 13 13 16 13 16 19 19 16 13 10 10 6 10 6 6 10 10 3 3 3 3 6 3 3 3 3 3 3 3 0 0 3 3 3 3
6 10 10 10 6 10 6 10 16 13 10 16 16 16 16 6 6 6 10 13 10 10 6 6 6 3 3 3 3 6 3 3 3 3 3 3 3 3 3 3 3 3 3
10 13 16 10 10 13 10 16 10 13 10 13 16 13 3 3 3 3 6 6 10 10 10 10 3 3 3 3 3 3 3 3 3 3 3 3 3 3 3 3 3 3 0
13 16 19 16 19 13 16 19 16 13 13 6 3 3 3 3 3 3 3 3 3 3 6 6 6 6 10 10 10 3 3 3 3 3 3 3 3 3 3 3 3 3 3
10 10 6 6 13 13 16 19 13 13 10 6 3 0 3 3 3 3 3 3 3 3 3 6 10 10 10 13 6 6 6 3 3 3 3 3 3 3 3 3 3 0 3
3 3 6 13 16 13 13 16 10 13 10 6 6 6 3 3 3 6 3 3 3 6 6 3 3 10 13 13 13 13 6 6 6 6 6 6 6 6 3 3 3 0 3
3 10 10 13 13 13 13 16 13 6 3 6 6 6 3 3 3 6 6 3 3 6 6 6 3 6 13 13 13 10 6 6 6 6 6 6 6 3 3 3 3 3 3
6 6 10 10 16 16 19 16 10 6 6 3 3 3 3 3 6 6 6 3 3 3 3 6 6 10 10 13 13 10 10 6 6 6 6 3 3 3 3 3 3 3 3
3 6 10 10 13 16 16 16 13 6 3 0 3 0 0 3 3 3 3 6 3 3 3 3 3 10 10 10 6 10 10 6 6 6 3 3 3 3 3 3 3 3 3
10 6 6 6 13 16 13 6 6 3 3 3 0 0 0 0 0 0 0 0 3 6 6 3 3 6 6 10 6 6 3 6 6 6 3 3 3 3 3 3 3 3 3
6 6 6 13 13 10 6 6 6 3 3 3 6 0 3 0 0 0 3 3 3 3 3 6 3 6 6 10 10 10 3 3 3 6 3 3 3 3 3 3 3 3 3
6 6 10 13 13 6 6 6 6 3 3 3 3 6 3 3 3 3 3 3 3 3 3 3 3 3 3 3 3 3 10 6 3 3 3 3 3 0 0 0 0 3 3
6 6 10 13 6 6 6 6 3 3 3 3 3 3 6 3 3 3 3 3 3 0 0 0 3 6 0 0 0 0 3 3 3 3 3 3 3 0 3 0 0 0 0
6 6 10 10 6 6 6 6 3 3 3 3 0 0 0 3 0 0 0 0 0 0 0 0 3 3 3 0 0 0 0 0 3 3 3 3 3 0 0 0 0 0 0
6 6 6 6 3 6 6 3 0 0 0 0 0 0 0 3 3 0 0 0 0 0 0 0 3 3 3 0 0 0 0 0 0 0 0 0 0 0 0 0 0 0 0
3 3 3 3 3 3 3 3 0 0 0 0 0 0 0 0 3 3 0 0 0 0 0 0 0 0 0 0 0 0 0 0 0 0 0 0 0 0 0 0 0 0 0
3 3 3 3 3 3 3 3 0 0 0 0 0 0 0 0 0 3 3 3 0 0 0 0 0 0 0 0 0 0 0 0 0 0 0 0 0 0 0 0 0 0 0
3 3 3 3 3 3 3 3 3 0 0 0 0 0 0 0 0 3 3 3 3 3 6 0 0 0 0 0 0 0 0 0 0 0 0 0 0 0 0 0 0 0 0
3 3 3 3 3 3 3 3 3 0 0 0 0 0 0 0 0 0 3 3 6 6 6 3 3 3 3 0 0 0 0 0 0 0 0 0 0 0 0 0 0 0 0
3 3 3 3 3 3 3 3 0 0 0 0 0 0 0 0 0 0 3 3 3 3 3 3 3 3 3 3 0 0 0 0 0 0 0 0 0 0 0 0 0 0 0
3 3 3 3 3 3 3 3 0 0 0 0 0 0 0 0 0 0 0 3 3 3 3 3 3 3 3 3 0 0 0 0 0 0 0 0 0 0 0 0 0 0 0
3 3 3 3 3 3 3 0 0 0 0 0 0 0 0 0 0 0 0 0 3 3 3 3 3 3 3 0 0 0 0 0 0 0 0 0 0 0 0 0 0 0 0
Height
5878 5877 5877 5876 5876 5875 5873 5872 5871 5869 5868 5867 5866 5865 5863 5862 5861 5860 5859 5858 5857 5856 5855 5854 5853 5851 5850 5848 5847 5846 5845 5844 5844 5843 5843 5842 5842 5841 5841 5840 5840 5840 5840
5875 5875 5874 5874 5873 5872 5871 5870 5868 5867 5866 5865 5863 5862 5861 5859 5858 5857 5856 5856 5855 5854 5853 5851 5850 5849 5847 5845 5844 5843 5843 5842 5841 5840 5839 5839 5839 5838 5837 5837 5836 5836 5835
5872 5872 5871 5871 5871 5870 5869 5868 5866 5865 5863 5862 5861 5860 5858 5857 5855 5854 5854 5853 5852 5851 5850 5849 5847 5846 5844 5843 5841 5840 5839 5838 5837 5836 5836 5835 5834 5834 5834 5833 5832 5831 5831
5869 5869 5868 5868 5867 5867 5866 5865 5864 5862 5861 5859 5858 5857 5856 5854 5853 5852 5851 5850 5850 5849 5847 5846 5844 5842 5841 5839 5838 5837 5836 5835 5833 5832 5832 5831 5830 5830 5829 5829 5828 5828 5827
5866 5865 5864 5864 5864 5863 5863 5862 5861 5859 5858 5857 5855 5853 5853 5852 5850 5849 5848 5847 5847 5846 5844 5843 5841 5840 5838 5836 5835 5833 5832 5831 5830 5828 5827 5827 5826 5825 5825 5825 5824 5824 5823
5862 5862 5861 5860 5860 5859 5859 5858 5857 5856 5854 5853 5851 5850 5849 5848 5847 5846 5845 5844 5844 5843 5841 5839 5838 5836 5834 5833 5831 5830 5828 5827 5826 5825 5823 5823 5822 5821 5821 5821 5820 5820 5820
5858 5858 5857 5856 5856 5855 5855 5855 5854 5852 5851 5850 5848 5847 5846 5844 5843 5842 5841 5841 5840 5839 5837 5836 5834 5833 5831 5829 5828 5826 5824 5823 5822 5821 5820 5819 5818 5818 5817 5817 5816 5816 5816
5853 5854 5853 5853 5852 5851 5851 5850 5849 5848 5847 5846 5844 5843 5842 5841 5839 5839 5838 5837 5836 5835 5834 5832 5831 5829 5827 5826 5824 5822 5821 5819 5817 5816 5815 5815 5814 5813 5813 5812 5812 5812 5812
5849 5849 5849 5849 5848 5847 5847 5846 5845 5844 5843 5842 5840 5840 5839 5837 5836 5835 5834 5833 5832 5830 5829 5829 5827 5825 5823 5822 5820 5818 5816 5815 5813 5812 5811 5810 5809 5808 5808 5808 5808 5808 5807
5845 5845 5845 5844 5844 5843 5843 5842 5841 5839 5838 5837 5837 5836 5834 5833 5831 5830 5830 5829 5828 5826 5825 5824 5822 5821 5819 5818 5816 5814 5812 5810 5809 5808 5807 5806 5805 5804 5804 5803 5803 5803 5803
5840 5840 5840 5839 5839 5839 5838 5837 5836 5835 5834 5833 5832 5831 5829 5828 5827 5826 5825 5824 5823 5822 5821 5819 5818 5816 5814 5813 5811 5809 5808 5806 5804 5803 5802 5801 5800 5799 5799 5798 5798 5797 5797
5835 5835 5835 5835 5834 5834 5833 5832 5831 5830 5829 5828 5827 5826 5825 5824 5823 5822 5821 5820 5819 5818 5816 5815 5813 5811 5810 5808 5806 5804 5803 5801 5800 5798 5797 5796 5795 5795 5794 5793 5793 5793 5792
5830 5830 5830 5830 5829 5829 5828 5827 5826 5825 5824 5823 5822 5821 5820 5819 5818 5817 5816 5815 5814 5812 5811 5810 5808 5806 5805 5803 5802 5800 5798 5796 5794 5793 5792 5791 5791 5790 5789 5788 5787 5787 5787
5824 5824 5824 5824 5823 5823 5822 5821 5820 5819 5819 5818 5817 5816 5815 5814 5813 5812 5811 5810 5809 5807 5806 5805 5803 5802 5800 5798 5797 5795 5793 5790 5788 5787 5786 5786 5785 5785 5784 5783 5782 5781 5781
5819 5819 5819 5818 5817 5817 5816 5815 5814 5814 5813 5812 5812 5811 5809 5808 5807 5806 5805 5804 5803 5802 5801 5799 5798 5796 5795 5793 5791 5789 5787 5785 5784 5782 5781 5780 5780 5779 5778 5777 5776 5775 5775
5813 5813 5812 5812 5811 5810 5809 5809 5809 5808 5807 5807 5806 5805 5804 5803 5802 5801 5800 5799 5798 5796 5795 5794 5792 5791 5789 5787 5785 5783 5782 5780 5779 5778 5777 5775 5775 5774 5773 5771 5770 5770 5769
5806 5806 5806 5806 5805 5804 5804 5803 5802 5802 5801 5801 5800 5799 5798 5797 5796 5795 5794 5793 5792 5790 5789 5788 5786 5785 5783 5781 5780 5778 5777 5775 5773 5772 5771 5770 5769 5768 5767 5766 5764 5763 5762
5799 5799 5799 5799 5799 5798 5797 5797 5796 5795 5795 5794 5793 5793 5792 5791 5790 5789 5788 5786 5785 5784 5783 5781 5780 5778 5777 5775 5773 5772 5771 5770 5768 5767 5766 5765 5763 5762 5761 5760 5759 5758 5757
5792 5792 5792 5792 5791 5791 5790 5789 5789 5788 5787 5787 5787 5786 5785 5784 5783 5782 5781 5779 5778 5777 5776 5775 5774 5772 5770 5769 5767 5766 5765 5764 5763 5762 5760 5758 5757 5756 5755 5754 5752 5751 5750
5785 5784 5784 5784 5783 5783 5782 5782 5781 5781 5780 5779 5779 5778 5778 5777 5776 5775 5774 5772 5771 5770 5769 5768 5767 5765 5764 5762 5761 5759 5759 5758 5757 5755 5754 5752 5751 5750 5748 5747 5746 5745 5743
5777 5777 5777 5777 5776 5776 5775 5774 5774 5773 5773 5772 5771 5771 5770 5770 5769 5768 5767 5765 5764 5763 5762 5761 5760 5759 5758 5756 5755 5754 5752 5751 5750 5749 5748 5746 5745 5743 5742 5741 5739 5738 5736
5769 5769 5769 5769 5768 5768 5767 5767 5766 5766 5765 5764 5764 5763 5763 5762 5761 5760 5759 5758 5757 5756 5755 5754 5753 5752 5751 5750 5749 5748 5746 5745 5744 5742 5741 5739 5738 5737 5736 5734 5733 5731 5729
5760 5761 5761 5761 5760 5760 5760 5759 5758 5758 5757 5756 5756 5755 5755 5754 5753 5752 5752 5750 5750 5749 5748 5747 5746 5745 5744 5743 5742 5741 5739 5738 5737 5735 5734 5732 5731 5730 5729 5727 5726 5724 5722
5752 5752 5752 5752 5752 5752 5751 5751 5750 5750 5749 5748 5748 5747 5747 5746 5745 5745 5744 5743 5742 5742 5741 5741 5740 5739 5737 5736 5735 5734 5732 5731 5730 5728 5727 5726 5724 5723 5722 5720 5719 5717 5716
5744 5743 5743 5743 5744 5743 5742 5742 5741 5741 5741 5740 5740 5739 5739 5738 5738 5737 5736 5736 5735 5734 5734 5733 5732 5731 5730 5729 5727 5726 5725 5724 5723 5721 5720 5719 5718 5716 5715 5713 5712 5711 5709
5735 5735 5735 5735 5735 5735 5734 5733 5732 5733 5733 5732 5732 5731 5730 5730 5730 5730 5729 5728 5728 5727 5726 5725 5724 5723 5722 5721 5719 5718 5717 5716 5715 5714 5713 5712 5711 5709 5708 5707 5705 5704 5702
Wind_Speed
10 10 9 9 10 10 11 11 11 11 11 10 10 11 11 12 12 11 11 11 11 11 11 11 12 12 12 13 13 12 12 12 12 12 11 12 12 12 12 12 13 13 13
11 10 10 11 11 11 13 12 12 12 10 10 11 12 12 12 12 12 12 12 12 12 12 12 12 12 13 13 13 12 12 13 13 13 13 13 13 13 13 13 13 13 13
12 12 11 12 12 12 13 13 12 12 11 11 12 12 12 12 13 13 13 13 12 12 13 13 14 13 13 13 13 13 13 14 14 14 13 13 13 14 14 13 14 14 14
14 14 13 13 13 12 13 13 12 12 12 12 12 13 12 13 13 13 13 13 13 13 14 14 14 14 13 13 13 14 14 14 15 14 14 14 14 14 13 13 14 14 14
16 16 15 14 14 14 14 14 14 14 14 14 14 14 13 13 13 13 14 13 14 14 14 14 14 14 14 14 13 14 15 15 15 15 14 14 14 14 13 13 13 14 14
18 18 17 15 14 14 14 14 15 16 15 15 14 14 14 14 14 14 14 14 14 14 14 14 14 15 15 15 15 15 15 15 15 15 14 14 14 14 13 13 13 13 13
18 18 17 16 15 14 14 15 16 17 16 15 15 15 15 14 14 14 15 15 16 16 15 15 16 16 16 16 16 16 16 15 16 15 15 15 14 14 14 14 14 14 14
18 17 17 16 15 15 16 16 17 18 18 18 16 15 16 16 15 15 15 15 16 17 17 16 17 17 17 17 17 17 16 16 16 16 15 15 16 16 16 16 15 15 15
19 18 18 17 17 17 17 17 18 19 19 19 18 17 17 17 16 15 16 15 16 16 17 18 18 18 17 17 17 16 16 16 16 15 15 16 16 16 17 17 16 17 16
19 18 19 18 18 18 18 19 19 20 20 20 19 18 19 18 17 17 16 16 16 16 17 18 18 18 18 18 18 17 17 16 16 16 16 16 16 16 16 16 17 18 18
19 20 19 18 18 18 19 20 19 20 20 19 18 18 18 18 17 17 16 16 16 17 18 18 18 19 18 18 18 18 18 18 17 17 17 17 17 17 17 17 17 18 18
20 20 19 19 19 19 19 19 19 19 19 19 18 18 18 18 18 17 17 17 17 18 19 20 19 19 18 18 18 18 18 18 18 18 18 17 17 17 17 18 18 18 19
21 20 20 20 20 20 20 20 19 19 19 19 19 20 19 18 18 17 17 18 19 19 20 20 20 19 19 19 18 18 18 18 19 19 19 18 18 17 18 18 19 19 20
21 21 20 20 20 21 20 20 20 19 19 19 19 20 19 19 18 18 18 18 19 20 20 21 20 20 20 20 20 19 19 19 19 19 19 19 18 18 19 19 20 20 20
22 22 21 20 20 19 20 20 19 19 19 19 20 20 20 20 20 19 19 19 20 21 21 21 21 21 21 20 20 20 20 20 19 19 19 19 18 19 19 19 20 20 20
23 23 22 21 21 20 20 21 20 20 20 20 21 21 21 21 21 20 20 20 21 21 22 21 21 21 21 21 21 21 21 20 19 19 19 19 19 20 20 19 19 20 20
24 23 23 23 22 22 22 22 22 21 21 21 21 21 21 21 21 21 21 21 21 21 22 22 22 22 22 21 21 21 21 20 19 19 19 19 19 19 19 20 20 20 21
26 25 25 24 23 23 23 23 23 23 22 22 22 22 22 21 21 21 22 22 22 22 22 22 21 21 22 22 22 21 21 20 19 20 19 19 20 20 20 20 21 21 22
24 25 25 25 24 24 24 24 24 23 23 23 23 23 22 22 22 22 22 22 23 22 22 22 22 21 21 22 22 22 21 20 20 20 20 21 21 21 21 22 22 21 21
25 24 24 24 25 24 24 24 25 24 24 24 24 24 23 23 23 23 23 24 24 23 22 22 22 22 22 22 22 21 21 20 21 21 21 21 21 22 22 22 22 22 22
26 26 26 26 26 25 25 25 24 24 24 25 25 25 25 24 24 24 25 25 24 24 23 23 23 23 22 22 21 21 21 21 22 22 22 22 22 22 22 22 21 21 22
27 27 26 26 26 25 26 24 24 25 25 25 25 25 25 25 25 25 25 24 24 24 23 23 22 22 22 22 21 21 22 22 23 23 23 23 22 22 22 22 22 23 23
27 27 27 26 26 26 27 26 25 25 26 26 25 25 25 26 25 25 25 24 24 24 23 23 23 22 22 22 22 22 23 23 23 23 23 23 22 22 22 23 23 23 22
27 28 28 27 26 27 27 27 26 26 26 26 25 25 25 26 26 26 25 24 24 23 23 23 22 22 23 23 23 23 24 24 23 23 23 22 23 23 22 22 23 23 23
28 28 27 27 28 28 29 29 28 27 26 26 25 25 25 26 26 25 24 24 24 24 24 24 24 23 23 24 24 24 24 24 24 23 23 22 22 22 22 22 23 23 23
27 28 28 28 28 28 29 28 28 28 28 27 26 26 26 26 26 25 25 25 25 25 26 26 26 25 25 25 25 25 24 24 24 23 23 23 23 22 22 22 23 23 23
Wind_Direction
284 290 286 291 303 308 309 313 316 318 314 310 308 305 305 305 303 302 304 305 307 311 313 314 312 313 312 310 308 303 299 294 291 289 287 284 282 282 280 275 271 266 263
280 289 296 292 302 308 315 310 310 313 312 311 311 306 304 303 299 296 296 296 300 306 308 308 309 311 312 312 311 306 300 294 289 288 288 286 283 281 280 276 272 268 263
278 283 291 296 305 307 307 308 307 307 309 313 312 304 301 299 298 296 291 296 298 302 305 304 307 309 310 309 310 307 300 297 292 289 288 286 283 283 279 276 274 271 268
275 280 285 291 294 300 308 305 304 305 309 312 309 306 302 301 301 299 295 294 295 299 302 302 305 306 306 305 305 307 301 297 293 289 288 286 283 281 280 277 274 270 268
274 279 284 287 291 292 297 299 300 302 305 307 306 307 302 297 295 294 294 294 294 297 299 301 304 306 305 303 302 303 302 299 295 290 288 286 283 280 278 279 278 274 272
275 278 281 281 282 284 288 293 296 297 299 303 305 308 304 300 296 291 291 291 292 293 295 296 300 303 303 304 301 300 300 297 296 292 287 285 283 280 279 279 277 276 276
273 277 277 275 277 280 282 284 288 291 293 293 298 301 302 300 297 293 291 292 292 294 295 296 299 302 301 301 300 299 297 295 293 290 285 283 282 279 279 279 277 276 275
269 274 276 272 274 277 280 285 287 288 290 289 293 296 296 297 300 294 290 291 290 292 294 296 298 298 299 299 298 297 295 294 292 288 283 281 280 278 277 276 276 275 273
267 270 272 272 272 276 280 286 290 290 288 289 291 292 296 295 295 294 291 289 294 296 293 294 300 301 300 299 299 299 299 296 292 289 285 284 283 279 277 275 273 273 271
265 268 269 270 271 274 277 284 288 291 292 292 289 292 295 292 292 289 288 290 293 295 297 298 300 301 299 299 297 297 296 295 291 287 285 283 282 282 280 277 274 273 271
263 267 270 272 275 276 278 281 287 290 291 292 291 293 294 290 288 289 290 290 292 295 297 299 298 298 298 298 296 295 292 291 291 287 284 282 280 281 282 279 277 276 273
264 268 274 275 276 279 280 281 286 289 290 291 292 293 293 288 288 289 289 291 292 295 296 298 297 296 297 297 298 296 293 290 289 287 284 283 282 282 281 278 277 277 276
266 271 274 275 277 279 279 280 282 284 287 290 291 292 291 287 288 288 289 290 292 295 296 296 298 296 295 295 296 297 298 295 291 286 283 283 283 282 281 278 278 277 276
268 273 274 276 279 279 278 278 280 281 283 286 288 291 289 287 288 288 288 289 291 292 293 295 296 295 295 293 293 295 297 296 293 288 284 284 282 281 281 279 279 278 279
269 272 274 276 281 283 281 281 280 281 282 285 288 291 290 288 287 287 287 287 290 291 291 294 295 294 294 292 292 294 295 295 291 287 285 286 284 282 282 282 281 280 279
271 274 276 277 281 284 284 282 279 279 280 283 286 288 289 287 286 284 285 287 288 289 289 292 293 293 293 291 291 291 294 293 291 287 285 285 284 283 282 283 282 281 280
271 274 277 279 281 282 281 281 281 279 279 281 283 284 286 285 283 281 283 285 287 288 288 289 291 291 292 290 289 289 291 291 291 288 285 285 284 283 282 282 281 281 281
271 272 275 279 281 281 280 281 282 282 282 281 281 282 283 283 282 282 283 285 287 287 287 288 290 291 292 290 289 288 290 290 291 290 287 285 285 283 285 286 284 283 283
271 271 274 278 279 279 279 280 280 283 285 285 283 282 282 281 283 284 284 285 286 286 285 286 288 290 291 292 290 287 287 289 290 290 290 289 288 286 288 289 287 286 284
270 272 275 278 278 279 280 282 281 284 285 285 285 283 282 282 282 282 284 285 284 285 285 286 287 288 290 291 289 286 287 288 288 289 291 290 289 288 288 289 288 288 288
270 271 274 277 278 279 281 282 281 282 282 284 285 283 283 282 282 281 283 283 283 283 284 286 287 287 288 287 287 287 287 288 289 289 290 289 288 287 287 288 288 289 290
269 270 273 275 277 279 280 279 280 280 281 283 283 284 283 283 282 281 281 281 282 283 284 284 285 285 285 285 285 285 286 288 289 288 289 288 286 286 286 287 289 290 291
270 272 273 275 275 277 279 278 279 279 281 282 282 283 284 284 282 282 281 281 282 282 283 284 285 285 285 285 284 285 286 287 288 288 288 287 286 286 286 285 287 290 290
270 272 272 273 275 277 278 279 278 278 280 280 280 281 281 283 282 283 283 281 281 282 282 284 285 285 285 285 285 286 287 286 286 287 287 287 285 285 284 285 287 289 291
268 270 272 273 274 277 279 278 274 273 275 277 277 278 278 280 281 281 282 282 281 280 281 282 282 283 284 285 286 285 286 286 285 285 285 285 284 283 283 284 286 288 290
268 268 270 274 276 278 281 279 273 271 273 276 276 277 278 279 280 280 282 281 280 280 280 280 281 281 282 284 285 284 283 284 285 284 284 283 283 284 285 285 285 287 289